Wetterdaten Herbst 2018

Datum T max T min Regen
01.09.2018 20.7 °C 11.6 °C 0 mm
02.09.2018 17.2 °C 14.4 °C 2.8 mm
03.09.2018 20.5 °C 14.3 °C 0 mm
04.09.2018 23.4 °C 12.2 °C 0 mm
05.09.2018 26.5 °C 13.4 °C 0 mm
06.09.2018 26.1 °C 14.3 °C 7 mm
07.09.2018 21.6 °C 13.2 °C 0 mm
08.09.2018 21.4 °C 10.3 °C 0 mm
09.09.2018 24.9 °C 9.4 °C 0 mm
10.09.2018 27.9 °C 10.1 °C 0 mm
11.09.2018 27.3 °C 12.2 °C 0 mm
12.09.2018 30.1 °C 12.1 °C 0.4 mm
13.09.2018 23.4 °C 16.2 °C 3.6 mm
14.09.2018 20.3 °C 15.3 °C 0 mm
15.09.2018 20.9 °C 11.6 °C 0 mm
16.09.2018 23.7 °C 8 °C 0 mm
17.09.2018 25.4 °C 9.8 °C 0 mm
18.09.2018 28.9 °C 12.3 °C 0 mm
19.09.2018 28.3 °C 14.5 °C 0 mm
20.09.2018 28.4 °C 13.7 °C 0 mm
21.09.2018 26.4 °C 13.3 °C 0 mm
22.09.2018 18.4 °C 11.3 °C 0 mm
23.09.2018 24.4 °C 10.3 °C 16 mm
24.09.2018 14.1 °C 7.1 °C 0 mm
25.09.2018 14.3 °C 3.1 °C 0 mm
26.09.2018 18.1 °C 1.2 °C 0 mm
27.09.2018 21.6 °C 5.9 °C 0 mm
28.09.2018 20 °C 7.6 °C 0.2 mm
29.09.2018 16.8 °C 5.7 °C 0 mm
30.09.2018 18.7 °C 3.5 °C 0 mm
01.10.2018 13.7 °C 8.2 °C 0 mm
02.10.2018 11.8 °C 4 °C 0 mm
03.10.2018 15.6 °C 8.4 °C 0.6 mm
04.10.2018 17.7 °C 4.6 °C 0 mm
05.10.2018 20.3 °C 5.4 °C 0 mm
06.10.2018 22.7 °C 8.9 °C 0 mm
07.10.2018 21.4 °C 9.6 °C 0 mm
08.10.2018 19.8 °C 7.7 °C 0 mm
09.10.2018 21.6 °C 8.4 °C 0 mm
10.10.2018 21.7 °C 7.7 °C 0 mm
11.10.2018 21.1 °C 7.8 °C 0 mm
12.10.2018 24.5 °C 10.9 °C 0 mm
13.10.2018 24.7 °C 9.2 °C 0 mm
14.10.2018 23.7 °C 9.6 °C 0 mm
15.10.2018 22 °C 6.8 °C 0 mm
16.10.2018 21.9 °C 5.7 °C 0 mm
17.10.2018 20.6 °C 6.6 °C 0 mm
18.10.2018 20.3 °C 7.2 °C 0 mm
19.10.2018 17.6 °C 6.5 °C 0 mm
20.10.2018 16.9 °C 6.2 °C 0 mm
21.10.2018 15.8 °C 2.6 °C 0 mm
22.10.2018 14.4 °C -0.2 °C 0 mm
23.10.2018 13.3 °C 4.8 °C 0 mm
24.10.2018 14.5 °C 11.2 °C 0.4 mm
25.10.2018 12.9 °C 11.1 °C 0.4 mm
26.10.2018 13.1 °C 8.4 °C 0 mm
27.10.2018 9.1 °C 6.3 °C 0.6 mm
28.10.2018 6.5 °C 2.8 °C 12.8 mm
29.10.2018 6.2 °C 3.8 °C 0.6 mm
30.10.2018 7.2 °C 4.8 °C 0 mm
31.10.2018 12.9 °C 2.7 °C 0 mm
01.11.2018 12.1 °C 2.4 °C 1.4 mm
02.11.2018 11.7 °C 4.7 °C 0 mm
03.11.2018 11.4 °C 6.5 °C 0 mm
04.11.2018 11.4 °C 9.6 °C 0 mm
05.11.2018 13.3 °C 5.3 °C 0 mm
06.11.2018 12.8 °C 2.6 °C 0 mm
07.11.2018 15.5 °C 4.1 °C 0 mm
08.11.2018 11.6 °C 8.2 °C 0.4 mm
09.11.2018 13.5 °C 5.7 °C 0 mm
10.11.2018 14.6 °C 5.2 °C 0 mm
11.11.2018 15.1 °C 9.3 °C 1.2 mm
12.11.2018 15.3 °C 8.7 °C 0 mm
13.11.2018 12.2 °C 4.8 °C 1.8 mm
14.11.2018 11.2 °C 1.8 °C 0 mm
15.11.2018 6.4 °C 3.8 °C 0 mm
16.11.2018 8.8 °C 0.8 °C 0 mm
17.11.2018 9.9 °C -0.7 °C 0 mm
18.11.2018 7 °C -1.7 °C 0 mm
19.11.2018 4.3 °C -2.8 °C 0 mm
20.11.2018 4.8 °C -1.6 °C 0 mm
21.11.2018 1.6 °C -3.9 °C 0 mm
22.11.2018 6.2 °C 0.1 °C 0 mm
23.11.2018 8.3 °C -1.8 °C 0 mm
24.11.2018 10.4 °C 2.8 °C 1.2 mm
25.11.2018 9.4 °C 0.1 °C 0 mm
26.11.2018 4.5 °C 3.3 °C 1.4 mm
27.11.2018 3.4 °C 1.4 °C 0 mm
28.11.2018 5.7 °C 0.7 °C 0 mm
29.11.2018 8.1 °C 1.3 °C 0 mm
30.11.2018 6.4 °C 1.5 °C 3.8 mm
 Hinweis zur Datenqualität
∅ Temperatur

11.1 °C

Abweichung vom Mittel

+0.9 °C

Niederschlag

56.6 mm

Abweichung vom Mittel

37 %

30.1 °C

Lufttemperatur
12.09.2018

1038 hPa

Luftdruck
25.09.2018

43.6 km/h

Windböen
23.09.2018

56.6 mm

Niederschlag
 

-3.9 °C

Lufttemperatur
21.11.2018

-2.2 °C

Bodentemperatur 5cm
01.01.1970

984 hPa

Luftdruck
30.10.2018
 Hinweis zur Datenqualität